カタログに戻る

FENGYUN 1C DEB

LostPO
NORAD 38129·DEBRIS·🇨🇳 China

打ち上げ May 10, 1999 から Taiyuan Satellite Launch Center

Loading…

次のパス (今後24時間)

TLE

古いSource: Space-Track

元期: Mar 22, 2022, 03:30 UTC

1 38129U 99025EQA 22081.14639215  .00001662  00000-0  12047-2 0  9993
2 38129  97.9682  53.9703 0132464 213.7327 145.5356 13.93492702597727

AllMySatでFENGYUN 1C DEBをリアルタイム追跡

Download on the App Store